TimeEST,TemperatureF,Dew PointF,Humidity,Sea Level PressureIn,VisibilityMPH,Wind Direction,Wind SpeedMPH,Gust SpeedMPH,PrecipitationIn,Events,Conditions,WindDirDegrees,DateUTC
12:55 AM,54.0,46.0,75,29.90,10.0,SW,17.3,23.0,N/A,,Overcast,220,2011-11-07 05:55:00
1:55 AM,53.1,45.0,74,29.91,10.0,SW,16.1,24.2,N/A,,Overcast,230,2011-11-07 06:55:00
2:26 AM,51.8,44.6,76,29.93,10.0,WSW,13.8,20.7,N/A,,Scattered Clouds,240,2011-11-07 07:26:00
2:55 AM,50.0,42.1,74,29.94,10.0,WSW,11.5,20.7,N/A,,Clear,250,2011-11-07 07:55:00
3:55 AM,48.9,37.9,66,29.96,10.0,WSW,16.1,-,N/A,,Clear,250,2011-11-07 08:55:00
4:55 AM,46.9,36.0,66,29.98,10.0,WSW,12.7,-,N/A,,Clear,240,2011-11-07 09:55:00
5:55 AM,44.1,33.1,65,30.00,10.0,SW,11.5,-,N/A,,Clear,230,2011-11-07 10:55:00
6:55 AM,42.1,30.9,65,30.01,10.0,SSW,8.1,-,N/A,,Clear,210,2011-11-07 11:55:00
7:55 AM,42.1,30.9,65,30.03,10.0,SSW,8.1,-,N/A,,Clear,210,2011-11-07 12:55:00
8:55 AM,46.0,34.0,63,30.03,10.0,SSW,11.5,-,N/A,,Clear,210,2011-11-07 13:55:00
9:55 AM,50.0,33.1,52,30.03,10.0,SW,12.7,21.9,N/A,,Clear,220,2011-11-07 14:55:00
10:55 AM,54.0,30.0,40,30.03,10.0,SW,16.1,26.5,N/A,,Clear,220,2011-11-07 15:55:00
11:55 AM,55.0,27.0,34,30.02,10.0,SW,21.9,31.1,N/A,,Clear,230,2011-11-07 16:55:00
12:55 PM,55.0,25.0,31,30.02,10.0,WSW,19.6,40.3,N/A,,Clear,240,2011-11-07 17:55:00
1:55 PM,55.0,24.1,30,30.01,10.0,WSW,19.6,34.5,N/A,,Clear,240,2011-11-07 18:55:00
2:55 PM,53.1,27.0,37,30.02,10.0,WSW,21.9,31.1,N/A,,Clear,240,2011-11-07 19:55:00
3:55 PM,52.0,27.0,38,30.04,10.0,WSW,17.3,27.6,N/A,,Clear,250,2011-11-07 20:55:00
4:55 PM,50.0,28.0,43,30.07,10.0,WNW,10.4,-,N/A,,Clear,300,2011-11-07 21:55:00
5:55 PM,44.1,34.0,68,30.10,10.0,WNW,8.1,-,N/A,,Clear,300,2011-11-07 22:55:00
6:55 PM,42.1,33.1,70,30.13,10.0,WNW,8.1,-,N/A,,Clear,290,2011-11-07 23:55:00
7:55 PM,42.1,33.1,70,30.14,10.0,WNW,6.9,-,N/A,,Clear,300,2011-11-08 00:55:00
8:55 PM,41.0,33.1,73,30.16,10.0,West,6.9,-,N/A,,Clear,280,2011-11-08 01:55:00
9:55 PM,39.9,32.0,73,30.17,10.0,West,5.8,-,N/A,,Clear,280,2011-11-08 02:55:00
10:55 PM,42.1,33.1,70,30.17,10.0,WNW,6.9,-,N/A,,Clear,290,2011-11-08 03:55:00
11:55 PM,42.1,33.1,70,30.17,10.0,WNW,5.8,-,N/A,,Clear,290,2011-11-08 04:55:00